Retour au catalogue

COSMOS 249 DEB

ActifUNKNOWN
NORAD 3506·DEBRIS·🇷🇺 Russia

Lancé Oct 20, 1968 depuis Baikonur Cosmodrome

Loading…

Prochains Passages (prochaines 24 heures)

TLE

FraisSource: Space-Track

Époque: Sep 14, 2026, 19:05 UTC

1 03506U 68091C   26257.79547382 -.00000006  00000-0  45453-4 0  9997
2 03506  62.3723  39.1368 0940539 282.4829  67.2630 12.91135205718058

Suivez COSMOS 249 DEB en temps réel avec AllMySat

Download on the App Store